Location: Newark
(21.1200°N, 73.4000°E)
Time: 22:01:01
(UTC+00:00)

Explorer 11/Cluster Stage 4 - Pass Details

Date: 21 January 2020
Orbit: 467 x 1259 km, 28.8° (Epoch: 19 February)

Event Time Altitude Azimuth Distance (km) Brightness Sun altitude
Rises 16:27:07 0° 287° (WNW) 3,137 10.2 -50.2°
Enters shadow 16:27:19 - 287° (WNW) 3,060 10.2 -50.2°
Reaches altitude 10° 16:29:51 10° 282° (WNW) 2,081 - -50.8°
Maximum altitude 16:34:27 50° 207° (SSW) 729 - -51.9°
Drops below altitude 10° 16:38:16 10° 131° (SE) 1,732 - -52.8°
Sets 16:40:22 0° 125° (SE) 2,555 - -53.3°
